Location: 22
(39.7117°N, 89.5929°W)
Time: 06:40:32
(UTC-05:00)

A-11 Canister half - Pass Details

Date: 30 January 2023
Orbit: 1526 x 1682 km, 47.3° (Epoch: 01 April)

Event Time Altitude Azimuth Distance (km) Brightness Sun altitude
Rises 06:07:30 0° 223° (SW) 4,668 11.2 -11.9°
Reaches altitude 10° 06:10:33 10° 221° (SW) 3,684 10.7 -11.4°
Maximum altitude 06:19:40 65° 142° (SE) 1,659 9.4 -9.7°
Drops below altitude 10° 06:28:56 10° 63° (ENE) 3,742 11.8 -8.0°
Sets 06:32:04 0° 61° (ENE) 4,745 12.3 -7.4°
